Time,TemperatureF,DewpointF,PressureIn,WindDirection,WindDirectionDegrees,WindSpeedMPH,WindSpeedGustMPH,Humidity,HourlyPrecipIn,Conditions,Clouds,dailyrainin,SoftwareType,DateUTC
2013-02-20 00:02:00,16.0,11.0,-100.00,West,275,11.0,20.0,79,-99.99,,,-99.99,,2013-02-20 05:02:00,
2013-02-20 00:12:00,16.0,11.0,-100.00,West,275,10.0,23.0,79,-99.99,,,-99.99,,2013-02-20 05:12:00,
2013-02-20 00:22:00,16.0,11.0,-100.00,West,265,13.0,18.0,80,-99.99,,,-99.99,,2013-02-20 05:22:00,
2013-02-20 00:32:00,16.0,11.0,-100.00,West,275,16.0,22.0,81,-99.99,,,-99.99,,2013-02-20 05:32:00,
2013-02-20 00:43:00,16.0,11.0,-100.00,West,275,14.0,22.0,81,-99.99,,,-99.99,,2013-02-20 05:43:00,
2013-02-20 00:52:00,16.0,11.0,-100.00,West,280,11.0,19.0,82,-99.99,,,-99.99,,2013-02-20 05:52:00,
2013-02-20 01:02:00,16.0,11.0,-100.00,West,275,9.0,21.0,82,-99.99,,,-99.99,,2013-02-20 06:02:00,
2013-02-20 01:11:00,16.0,12.0,-100.00,West,280,12.0,21.0,82,-99.99,,,-99.99,,2013-02-20 06:11:00,
2013-02-20 01:21:00,16.0,11.0,-100.00,West,265,12.0,19.0,82,-99.99,,,-99.99,,2013-02-20 06:21:00,
2013-02-20 01:32:00,16.0,12.0,-100.00,West,270,11.0,17.0,82,-99.99,,,-99.99,,2013-02-20 06:32:00,
2013-02-20 01:42:00,16.0,12.0,-100.00,West,270,12.0,18.0,82,-99.99,,,-99.99,,2013-02-20 06:42:00,
2013-02-20 01:51:00,16.0,12.0,-100.00,West,275,11.0,19.0,82,-99.99,,,-99.99,,2013-02-20 06:51:00,
2013-02-20 02:02:00,16.0,12.0,-100.00,West,270,13.0,21.0,82,-99.99,,,-99.99,,2013-02-20 07:02:00,
2013-02-20 02:11:00,16.0,12.0,-100.00,West,275,12.0,20.0,82,-99.99,,,-99.99,,2013-02-20 07:11:00,
2013-02-20 02:21:00,16.0,12.0,-100.00,West,275,14.0,19.0,82,-99.99,,,-99.99,,2013-02-20 07:21:00,
2013-02-20 02:32:00,16.0,12.0,-100.00,West,275,11.0,19.0,83,-99.99,,,-99.99,,2013-02-20 07:32:00,
2013-02-20 02:42:00,16.0,12.0,-100.00,West,270,12.0,19.0,84,-99.99,,,-99.99,,2013-02-20 07:42:00,
2013-02-20 02:52:00,16.0,12.0,-100.00,West,280,11.0,17.0,84,-99.99,,,-99.99,,2013-02-20 07:52:00,
2013-02-20 03:05:00,16.0,12.0,-100.00,West,270,11.0,17.0,84,-99.99,,,-99.99,,2013-02-20 08:05:00,
2013-02-20 03:11:00,16.0,13.0,-100.00,West,275,11.0,17.0,84,-99.99,,,-99.99,,2013-02-20 08:11:00,
2013-02-20 03:21:00,16.0,12.0,-100.00,West,275,14.0,20.0,83,-99.99,,,-99.99,,2013-02-20 08:21:00,
2013-02-20 03:31:00,16.0,12.0,-100.00,West,270,13.0,20.0,82,-99.99,,,-99.99,,2013-02-20 08:31:00,
2013-02-20 03:41:00,16.0,11.0,-100.00,West,275,12.0,20.0,81,-99.99,,,-99.99,,2013-02-20 08:41:00,
2013-02-20 03:52:00,16.0,11.0,-100.00,WNW,285,12.0,24.0,80,-99.99,,,-99.99,,2013-02-20 08:52:00,
2013-02-20 04:02:00,16.0,11.0,-100.00,West,275,15.0,22.0,80,-99.99,,,-99.99,,2013-02-20 09:02:00,
2013-02-20 04:11:00,16.0,11.0,-100.00,West,265,13.0,22.0,79,-99.99,,,-99.99,,2013-02-20 09:11:00,
2013-02-20 04:21:00,16.0,11.0,-100.00,West,275,13.0,18.0,79,-99.99,,,-99.99,,2013-02-20 09:21:00,
2013-02-20 04:32:00,16.0,11.0,-100.00,West,275,14.0,22.0,77,-99.99,,,-99.99,,2013-02-20 09:32:00,
2013-02-20 04:42:00,16.0,10.0,-100.00,West,275,15.0,22.0,77,-99.99,,,-99.99,,2013-02-20 09:42:00,
2013-02-20 04:51:00,16.0,11.0,-100.00,West,275,17.0,24.0,78,-99.99,,,-99.99,,2013-02-20 09:51:00,
2013-02-20 05:01:00,16.0,11.0,-100.00,West,275,14.0,21.0,79,-99.99,,,-99.99,,2013-02-20 10:01:00,
2013-02-20 05:12:00,16.0,11.0,-100.00,West,280,15.0,24.0,79,-99.99,,,-99.99,,2013-02-20 10:12:00,
2013-02-20 05:22:00,16.0,11.0,-100.00,West,270,15.0,21.0,79,-99.99,,,-99.99,,2013-02-20 10:22:00,
2013-02-20 05:32:00,16.0,11.0,-100.00,WNW,285,12.0,21.0,79,-99.99,,,-99.99,,2013-02-20 10:32:00,
2013-02-20 05:42:00,16.0,11.0,-100.00,West,270,13.0,21.0,80,-99.99,,,-99.99,,2013-02-20 10:42:00,
2013-02-20 05:51:00,16.0,11.0,-100.00,West,275,13.0,23.0,81,-99.99,,,-99.99,,2013-02-20 10:51:00,
2013-02-20 06:02:00,16.0,11.0,-100.00,WNW,285,9.0,21.0,81,-99.99,,,-99.99,,2013-02-20 11:02:00,
2013-02-20 06:11:00,16.0,12.0,-100.00,West,275,12.0,19.0,82,-99.99,,,-99.99,,2013-02-20 11:11:00,
2013-02-20 06:21:00,16.0,12.0,-100.00,West,275,12.0,17.0,84,-99.99,,,-99.99,,2013-02-20 11:21:00,
2013-02-20 06:32:00,15.0,12.0,-100.00,West,280,13.0,21.0,85,-99.99,,,-99.99,,2013-02-20 11:32:00,
2013-02-20 06:42:00,15.0,12.0,-100.00,West,270,17.0,22.0,84,-99.99,,,-99.99,,2013-02-20 11:42:00,
2013-02-20 06:52:00,15.0,12.0,-100.00,West,270,9.0,16.0,84,-99.99,,,-99.99,,2013-02-20 11:52:00,
2013-02-20 07:02:00,15.0,12.0,-100.00,West,270,10.0,18.0,84,-99.99,,,-99.99,,2013-02-20 12:02:00,
2013-02-20 07:12:00,15.0,12.0,-100.00,West,280,9.0,16.0,85,-99.99,,,-99.99,,2013-02-20 12:12:00,
2013-02-20 07:21:00,15.0,12.0,-100.00,West,275,14.0,18.0,85,-99.99,,,-99.99,,2013-02-20 12:21:00,
2013-02-20 07:32:00,15.0,12.0,-100.00,West,275,11.0,19.0,85,-99.99,,,-99.99,,2013-02-20 12:32:00,
2013-02-20 07:42:00,15.0,12.0,-100.00,West,275,12.0,17.0,85,-99.99,,,-99.99,,2013-02-20 12:42:00,
2013-02-20 07:52:00,16.0,12.0,-100.00,WNW,285,12.0,17.0,85,-99.99,,,-99.99,,2013-02-20 12:52:00,
2013-02-20 08:01:00,16.0,12.0,-100.00,WNW,285,11.0,16.0,85,-99.99,,,-99.99,,2013-02-20 13:01:00,
2013-02-20 08:11:00,16.0,12.0,-100.00,West,270,11.0,16.0,85,-99.99,,,-99.99,,2013-02-20 13:11:00,
2013-02-20 08:22:00,16.0,12.0,-100.00,WNW,285,11.0,19.0,85,-99.99,,,-99.99,,2013-02-20 13:22:00,
2013-02-20 08:32:00,16.0,12.0,-100.00,West,275,14.0,17.0,85,-99.99,,,-99.99,,2013-02-20 13:32:00,
2013-02-20 08:42:00,16.0,13.0,-100.00,West,275,11.0,19.0,85,-99.99,,,-99.99,,2013-02-20 13:42:00,
2013-02-20 08:51:00,16.0,13.0,-100.00,West,270,11.0,17.0,85,-99.99,,,-99.99,,2013-02-20 13:51:00,
2013-02-20 09:01:00,16.0,13.0,-100.00,WNW,290,11.0,18.0,85,-99.99,,,-99.99,,2013-02-20 14:01:00,
2013-02-20 09:11:00,17.0,13.0,-100.00,WNW,290,11.0,20.0,85,-99.99,,,-99.99,,2013-02-20 14:11:00,
2013-02-20 09:21:00,17.0,13.0,-100.00,West,275,10.0,17.0,85,-99.99,,,-99.99,,2013-02-20 14:21:00,
2013-02-20 09:32:00,17.0,13.0,-100.00,West,270,13.0,17.0,85,-99.99,,,-99.99,,2013-02-20 14:32:00,
2013-02-20 09:42:00,17.0,14.0,-100.00,West,275,12.0,17.0,85,-99.99,,,-99.99,,2013-02-20 14:42:00,
2013-02-20 09:52:00,18.0,14.0,-100.00,West,275,11.0,16.0,84,-99.99,,,-99.99,,2013-02-20 14:52:00,
2013-02-20 10:02:00,18.0,14.0,-100.00,WNW,295,12.0,18.0,82,-99.99,,,-99.99,,2013-02-20 15:02:00,
2013-02-20 10:11:00,19.0,14.0,-100.00,WNW,295,15.0,18.0,81,-99.99,,,-99.99,,2013-02-20 15:11:00,
2013-02-20 10:22:00,19.0,14.0,-100.00,West,275,14.0,22.0,79,-99.99,,,-99.99,,2013-02-20 15:22:00,
2013-02-20 10:32:00,19.0,14.0,-100.00,NW,305,12.0,21.0,79,-99.99,,,-99.99,,2013-02-20 15:32:00,
2013-02-20 10:42:00,19.0,14.0,-100.00,WNW,295,13.0,22.0,78,-99.99,,,-99.99,,2013-02-20 15:42:00,
2013-02-20 10:52:00,20.0,13.0,-100.00,NW,315,14.0,19.0,76,-99.99,,,-99.99,,2013-02-20 15:52:00,
2013-02-20 11:01:00,20.0,13.0,-100.00,WNW,300,14.0,20.0,75,-99.99,,,-99.99,,2013-02-20 16:01:00,
2013-02-20 11:12:00,20.0,13.0,-100.00,NW,305,11.0,19.0,75,-99.99,,,-99.99,,2013-02-20 16:12:00,
2013-02-20 11:21:00,20.0,14.0,-100.00,NW,310,9.0,20.0,76,-99.99,,,-99.99,,2013-02-20 16:21:00,
2013-02-20 11:32:00,19.0,14.0,-100.00,North,355,7.0,12.0,80,-99.99,,,-99.99,,2013-02-20 16:32:00,
2013-02-20 11:42:00,19.0,15.0,-100.00,North,350,4.0,12.0,82,-99.99,,,-99.99,,2013-02-20 16:42:00,
2013-02-20 11:52:00,20.0,16.0,-100.00,NW,320,4.0,9.0,82,-99.99,,,-99.99,,2013-02-20 16:52:00,
2013-02-20 12:01:00,20.0,15.0,-100.00,NW,315,7.0,11.0,82,-99.99,,,-99.99,,2013-02-20 17:01:00,
2013-02-20 12:11:00,20.0,15.0,-100.00,WNW,295,5.0,10.0,81,-99.99,,,-99.99,,2013-02-20 17:11:00,
2013-02-20 12:21:00,20.0,15.0,-100.00,NNW,330,4.0,7.0,81,-99.99,,,-99.99,,2013-02-20 17:21:00,
2013-02-20 12:32:00,20.0,16.0,-100.00,NW,310,6.0,9.0,81,-99.99,,,-99.99,,2013-02-20 17:32:00,
2013-02-20 12:42:00,21.0,16.0,-100.00,NNW,330,4.0,10.0,80,-99.99,,,-99.99,,2013-02-20 17:42:00,
2013-02-20 12:52:00,21.0,16.0,-100.00,North,0,2.0,9.0,80,-99.99,,,-99.99,,2013-02-20 17:52:00,
2013-02-20 13:02:00,21.0,16.0,-100.00,NW,320,4.0,10.0,79,-99.99,,,-99.99,,2013-02-20 18:02:00,
2013-02-20 13:11:00,21.0,16.0,-100.00,NW,315,5.0,9.0,79,-99.99,,,-99.99,,2013-02-20 18:11:00,
2013-02-20 13:21:00,21.0,16.0,-100.00,NNW,340,4.0,10.0,79,-99.99,,,-99.99,,2013-02-20 18:21:00,
2013-02-20 13:32:00,21.0,16.0,-100.00,NW,315,4.0,9.0,79,-99.99,,,-99.99,,2013-02-20 18:32:00,
2013-02-20 13:42:00,21.0,16.0,-100.00,NNW,345,4.0,10.0,79,-99.99,,,-99.99,,2013-02-20 18:42:00,
2013-02-20 13:52:00,21.0,16.0,-100.00,NW,325,7.0,14.0,78,-99.99,,,-99.99,,2013-02-20 18:52:00,
2013-02-20 14:01:00,22.0,15.0,-100.00,NW,305,12.0,17.0,73,-99.99,,,-99.99,,2013-02-20 19:01:00,
2013-02-20 14:11:00,22.0,14.0,-100.00,NW,320,10.0,21.0,71,-99.99,,,-99.99,,2013-02-20 19:11:00,
2013-02-20 14:21:00,23.0,15.0,-100.00,NW,320,7.0,16.0,71,-99.99,,,-99.99,,2013-02-20 19:21:00,
2013-02-20 14:31:00,22.0,15.0,-100.00,NW,315,6.0,13.0,72,-99.99,,,-99.99,,2013-02-20 19:31:00,
2013-02-20 14:41:00,22.0,15.0,-100.00,NW,305,4.0,13.0,72,-99.99,,,-99.99,,2013-02-20 19:41:00,
2013-02-20 14:52:00,22.0,15.0,-100.00,NW,310,7.0,12.0,73,-99.99,,,-99.99,,2013-02-20 19:52:00,
2013-02-20 15:01:00,22.0,15.0,-100.00,NW,320,7.0,12.0,74,-99.99,,,-99.99,,2013-02-20 20:01:00,
2013-02-20 15:11:00,22.0,15.0,-100.00,NW,305,7.0,13.0,75,-99.99,,,-99.99,,2013-02-20 20:11:00,
2013-02-20 15:21:00,22.0,15.0,-100.00,WNW,300,12.0,17.0,73,-99.99,,,-99.99,,2013-02-20 20:21:00,
2013-02-20 15:31:00,22.0,14.0,-100.00,West,275,17.0,25.0,73,-99.99,,,-99.99,,2013-02-20 20:31:00,
2013-02-20 15:41:00,22.0,14.0,-100.00,WNW,295,16.0,20.0,72,-99.99,,,-99.99,,2013-02-20 20:41:00,
2013-02-20 15:51:00,22.0,14.0,-100.00,WNW,290,16.0,24.0,70,-99.99,,,-99.99,,2013-02-20 20:51:00,
2013-02-20 16:01:00,22.0,15.0,-100.00,WNW,290,17.0,22.0,72,-99.99,,,-99.99,,2013-02-20 21:01:00,
2013-02-20 16:11:00,22.0,15.0,-100.00,WNW,300,16.0,21.0,72,-99.99,,,-99.99,,2013-02-20 21:11:00,
2013-02-20 16:21:00,22.0,15.0,-100.00,WNW,295,14.0,22.0,73,-99.99,,,-99.99,,2013-02-20 21:21:00,
2013-02-20 16:31:00,22.0,15.0,-100.00,WNW,295,11.0,22.0,73,-99.99,,,-99.99,,2013-02-20 21:31:00,
2013-02-20 16:42:00,22.0,15.0,-100.00,WNW,300,17.0,22.0,73,-99.99,,,-99.99,,2013-02-20 21:42:00,
2013-02-20 16:51:00,22.0,15.0,-100.00,NW,315,14.0,24.0,73,-99.99,,,-99.99,,2013-02-20 21:51:00,
2013-02-20 17:02:00,22.0,15.0,-100.00,WNW,300,14.0,24.0,72,-99.99,,,-99.99,,2013-02-20 22:02:00,
2013-02-20 17:11:00,22.0,15.0,-100.00,WNW,295,19.0,24.0,72,-99.99,,,-99.99,,2013-02-20 22:11:00,
2013-02-20 17:21:00,22.0,15.0,-100.00,WNW,300,14.0,17.0,73,-99.99,,,-99.99,,2013-02-20 22:21:00,
2013-02-20 17:31:00,22.0,15.0,-100.00,WNW,295,17.0,22.0,73,-99.99,,,-99.99,,2013-02-20 22:31:00,
2013-02-20 17:42:00,22.0,15.0,-100.00,NW,305,14.0,24.0,72,-99.99,,,-99.99,,2013-02-20 22:42:00,
2013-02-20 17:51:00,22.0,15.0,-100.00,WNW,300,13.0,23.0,72,-99.99,,,-99.99,,2013-02-20 22:51:00,
2013-02-20 18:01:00,22.0,15.0,-100.00,NW,310,9.0,21.0,73,-99.99,,,-99.99,,2013-02-20 23:01:00,
2013-02-20 18:12:00,22.0,15.0,-100.00,NW,315,12.0,17.0,74,-99.99,,,-99.99,,2013-02-20 23:12:00,
2013-02-20 18:22:00,21.0,15.0,-100.00,NW,320,10.0,16.0,75,-99.99,,,-99.99,,2013-02-20 23:22:00,
2013-02-20 18:32:00,21.0,15.0,-100.00,NW,310,10.0,19.0,77,-99.99,,,-99.99,,2013-02-20 23:32:00,
2013-02-20 18:42:00,21.0,15.0,-100.00,NW,320,7.0,14.0,77,-99.99,,,-99.99,,2013-02-20 23:42:00,
2013-02-20 18:52:00,21.0,16.0,-100.00,NW,305,9.0,14.0,78,-99.99,,,-99.99,,2013-02-20 23:52:00,
2013-02-20 19:03:00,21.0,15.0,-100.00,NW,305,9.0,15.0,78,-99.99,,,-99.99,,2013-02-21 00:03:00,
2013-02-20 19:11:00,21.0,15.0,-100.00,NW,305,7.0,17.0,76,-99.99,,,-99.99,,2013-02-21 00:11:00,
2013-02-20 19:22:00,21.0,15.0,-100.00,NW,325,14.0,25.0,75,-99.99,,,-99.99,,2013-02-21 00:22:00,
2013-02-20 19:32:00,21.0,14.0,-100.00,NW,320,13.0,21.0,73,-99.99,,,-99.99,,2013-02-21 00:32:00,
2013-02-20 19:42:00,21.0,14.0,-100.00,NNW,335,7.0,17.0,73,-99.99,,,-99.99,,2013-02-21 00:42:00,
2013-02-20 19:52:00,21.0,14.0,-100.00,NW,310,7.0,16.0,73,-99.99,,,-99.99,,2013-02-21 00:52:00,
2013-02-20 20:01:00,21.0,14.0,-100.00,NW,305,13.0,25.0,72,-99.99,,,-99.99,,2013-02-21 01:01:00,
2013-02-20 20:11:00,21.0,13.0,-100.00,NNW,335,11.0,24.0,70,-99.99,,,-99.99,,2013-02-21 01:11:00,
2013-02-20 20:21:00,21.0,13.0,-100.00,NW,315,12.0,19.0,71,-99.99,,,-99.99,,2013-02-21 01:21:00,
2013-02-20 20:32:00,21.0,13.0,-100.00,NW,325,11.0,20.0,71,-99.99,,,-99.99,,2013-02-21 01:32:00,
2013-02-20 20:42:00,21.0,13.0,-100.00,NW,325,11.0,20.0,71,-99.99,,,-99.99,,2013-02-21 01:42:00,
2013-02-20 20:51:00,21.0,13.0,-100.00,NW,325,11.0,20.0,71,-99.99,,,-99.99,,2013-02-21 01:51:00,
2013-02-20 21:02:00,21.0,13.0,-100.00,NW,325,11.0,20.0,71,-99.99,,,-99.99,,2013-02-21 02:02:00,
2013-02-20 21:11:00,20.0,13.0,-100.00,NW,325,7.0,13.0,72,-99.99,,,-99.99,,2013-02-21 02:11:00,
2013-02-20 21:22:00,20.0,13.0,-100.00,NNW,340,6.0,17.0,72,-99.99,,,-99.99,,2013-02-21 02:22:00,
2013-02-20 21:32:00,20.0,13.0,-100.00,NW,320,9.0,17.0,72,-99.99,,,-99.99,,2013-02-21 02:32:00,
2013-02-20 21:42:00,20.0,13.0,-100.00,NW,320,9.0,17.0,72,-99.99,,,-99.99,,2013-02-21 02:42:00,
2013-02-20 21:51:00,20.0,13.0,-100.00,NW,320,9.0,17.0,72,-99.99,,,-99.99,,2013-02-21 02:51:00,
2013-02-20 22:02:00,20.0,13.0,-100.00,NW,315,6.0,13.0,73,-99.99,,,-99.99,,2013-02-21 03:02:00,
2013-02-20 22:12:00,20.0,13.0,-100.00,NW,310,11.0,15.0,73,-99.99,,,-99.99,,2013-02-21 03:12:00,
2013-02-20 22:21:00,20.0,13.0,-100.00,NW,305,6.0,12.0,73,-99.99,,,-99.99,,2013-02-21 03:21:00,
2013-02-20 22:32:00,20.0,13.0,-100.00,NW,315,7.0,13.0,73,-99.99,,,-99.99,,2013-02-21 03:32:00,
2013-02-20 22:42:00,20.0,13.0,-100.00,NW,315,9.0,15.0,73,-99.99,,,-99.99,,2013-02-21 03:42:00,
2013-02-20 22:51:00,20.0,13.0,-100.00,NW,310,7.0,11.0,73,-99.99,,,-99.99,,2013-02-21 03:51:00,
2013-02-20 23:01:00,20.0,13.0,-100.00,NW,310,6.0,12.0,73,-99.99,,,-99.99,,2013-02-21 04:01:00,
2013-02-20 23:11:00,20.0,13.0,-100.00,NW,325,6.0,14.0,73,-99.99,,,-99.99,,2013-02-21 04:11:00,
2013-02-20 23:22:00,20.0,13.0,-100.00,NW,310,6.0,10.0,73,-99.99,,,-99.99,,2013-02-21 04:22:00,
2013-02-20 23:32:00,20.0,13.0,-100.00,NW,325,7.0,12.0,74,-99.99,,,-99.99,,2013-02-21 04:32:00,
2013-02-20 23:42:00,20.0,13.0,-100.00,NNW,335,6.0,11.0,74,-99.99,,,-99.99,,2013-02-21 04:42:00,
2013-02-20 23:52:00,20.0,13.0,-100.00,NW,325,6.0,12.0,74,-99.99,,,-99.99,,2013-02-21 04:52:00,